Regional Weather Roundup
Issued by NWS

Home | Current Version | Previous Version | Graphics & Text | Print | Product List | Glossary On
Versions: 1 2 3 4 5 6 7 8 9 10 11 12 13 14 15 16 17 18 19 20 21 22 23 24 25 26 27 28 29 30 31 32 33 34 35 36 37 38 39 40 41 42 43 44 45 46 47 48 49 50
000
ASUS43 KDTX 251601
RWRMI
MICHIGAN HOURLY REGIONAL WEATHER ROUNDUP
NATIONAL WEATHER SERVICE DETROIT/PONTIAC MI
1200 PM EDT SUN JUN 25 2017

NOTE: "FAIR" INDICATES FEW OR NO CLOUDS BELOW 12,000 FEET WITH NO
SIGNIFICANT WEATHER AND/OR OBSTRUCTION TO VISIBILITY.

MIZ047>049-052>055-059>063-066>070-074>076-081>083-251700-
SOUTHEAST LOWER MICHIGAN

CITY           SKY/WX    TMP DP  RH WIND       PRES   REMARKS
ADRIAN         MOSUNNY   68  46  45 NW16G24   30.07R
ALMA           CLOUDY    62  50  63 W14G20    30.01S
ANN ARBOR      MOSUNNY   67  48  50 W18G26    30.03R
BAD AXE        CLOUDY    64  50  60 W10G17    29.99R
CARO           PTSUNNY   63  50  61 W13G18    29.99R
DETROIT CITY   MOSUNNY   68  46  45 W14G22    30.01R
DETROIT        MOSUNNY   70  47  43 W15G25    30.03R
FLINT          PTSUNNY   66  47  50 W20       30.01S
GROSSE ILE     PTSUNNY   68  46  45 W13G20    30.02R
HILLSDALE      PTSUNNY   64  45  48 W16G25    30.06S
HOWELL         PTSUNNY   66  45  46 W17G23    30.03R

CITY           SKY/WX    TMP DP  RH WIND       PRES   REMARKS
JACKSON        MOSUNNY   66  48  52 W14G22    30.05R
LAMBERTVILLE   SUNNY     67  46  45 NW12G22   30.05R
LANSING        PTSUNNY   68  47  46 W17       30.03S
LAPEER         PTSUNNY   66  47  50 W13G23    30.00S
MASON          PTSUNNY   66  49  54 W12G22    30.04R
MONROE         MOSUNNY   69  49  49 W14G21    30.03S
MT. CLEMENS    PTSUNNY   67  47  49 W20G26    29.99R
PONTIAC        PTSUNNY   65  47  52 W17G26    30.01R
PORT HOPE        N/A     64  50  60 W9G18     29.96R
PORT HURON     MOSUNNY   66  46  48 W10G17    29.99S
TRI CITIES     CLOUDY    62  51  67 W14       30.00R
MIDLAND        CLOUDY    63  50  62 W7        29.99S
TROY           MOSUNNY   67  42  39 W13G26    30.03S
SAGINAW HB     CLOUDY    63  46  55 W13       29.99S
$$
MIZ043>046-050>051-056>058-064>065-071>073-077>080-251700-
SOUTHWEST LOWER MICHIGAN

CITY           SKY/WX    TMP DP  RH WIND       PRES   REMARKS
BATTLE CREEK   PTSUNNY   67  48  50 W15G26    30.06S
BENTON HARBOR  SUNNY     67  50  54 W18G25    30.09S
BIG RAPIDS     CLOUDY    60  49  65 W14G21    29.99S
COLDWATER      PTSUNNY   64  44  48 W16G22    30.08R
FREMONT        CLOUDY    63  49  61 W17G25    30.01R
HOLLAND        MOSUNNY   65  53  65 W20G25    30.07R
GRAND RAPIDS   PTSUNNY   65  51  60 W23G30    30.03R
IONIA          CLOUDY    64  49  57 W18G24    30.02S
KALAMAZOO      MOSUNNY   67  45  45 W14G25    30.07S
LUDINGTON      CLOUDY    60  53  78 W10G20    30.00R
MARSHALL       PTSUNNY   69  47  44 W15G24    30.05S
MOUNT PLEASANT RAIN      59  50  71 SW10G16   30.00R
MUSKEGON       PTSUNNY   64  52  64 W18G25    30.04R
SOUTH HAVEN    SUNNY     66  53  64 W16       30.08R
$$
MIZ016>042-251700-
NORTHERN LOWER MICHIGAN

CITY           SKY/WX    TMP DP  RH WIND       PRES   REMARKS
ALPENA         PTSUNNY   64  54  69 W6        29.94S
BEAVER ISLAND  CLOUDY    58  52  81 NW6       29.98R
BELLAIRE       CLOUDY    62  51  66 NW7       29.96R
CADILLAC       CLOUDY    58  56  90 SW10      29.98R
CHARLEVOIX     MOSUNNY   62  55  76 W9        29.99R
FRANKFORT      PTSUNNY   61  51  70 W8        29.98S
GAYLORD        PTSUNNY   61  49  64 W13       29.96R
GRAYLING       LGT RAIN  56  51  81 W8G17     29.98R
HARBOR SPRINGS SUNNY     63  56  79 SW9       29.95R
HOUGHTON LAKE  CLOUDY    59  48  67 W10       29.98R
MANISTEE       CLOUDY    58  53  84 W16       29.99R
OSCODA         CLOUDY    65  51  60 W10G17    29.95S
PELLSTON       CLOUDY    62  51  67 N9        29.95R
ROGERS CITY    MOSUNNY   60  55  84 N7        29.96R
TRAVERSE CITY  CLOUDY    58  53  84 NW5       29.96R
$$
MIZ007>008-015-251700-
EASTERN UPPER MICHIGAN

CITY           SKY/WX    TMP DP  RH WIND       PRES   REMARKS
KINROSS        CLOUDY    60  51  72 NW7       29.95S
MACKINAC ISLAN CLOUDY    59  54  83 N9        29.96R
NEWBERRY       CLOUDY    58  55  89 NE9       29.96R
S. S. MARIE    PTSUNNY   61  53  75 W8        29.94S
MUNISING         N/A     52  51  97 NW12      29.98R
$$
MIZ004>006-011>014-085-251700-
CENTRAL UPPER MICHIGAN

CITY           SKY/WX    TMP DP  RH WIND       PRES   REMARKS
MANISTIQUE     PTSUNNY   59  53  78 N6        29.97R
ESCANABA       CLOUDY    62  53  72 N9        29.98R
MENOMINEE      PTSUNNY   64  53  67 NW8       30.00R
SAWYER-GWINN   MOSUNNY   61  52  72 NE12      29.99R
$$
MIZ001>003-009>011-084-251700-
WESTERN UPPER MICHIGAN

CITY           SKY/WX    TMP DP  RH WIND       PRES   REMARKS
IRON MOUNTAIN  CLOUDY    60  50  69 W10       29.99S
HOUGHTON       MOSUNNY   59  52  77 NW10      29.99S
COPPER HARBOR    N/A     53  50  89 N13       29.99S
IRONWOOD       CLOUDY    56  52  86 VRB3      30.04R
$$

ABBREVIATIONS USED IN REMARKS
   TC - TEMPERATURE IN CELSIUS
  WCI - WIND CHILL INDEX
   HX - HEAT INDEX
  VSB - VISIBILITY




USA.gov is the U.S. government's official web portal to all federal, state and local government web resources and services.